Torna al catalogo

STARLINK-32354

AttivoComunicazioniVLEO
NORAD 61932·PAYLOAD·🇺🇸 United States

Lanciato Nov 11, 2024 da Cape Canaveral Space Force Station

Loading…

Prossimi Passaggi (prossime 24 ore)

TLE

AggiornatoSource: CelesTrak SupGP

Epoca: Sep 14, 2026, 22:36 UTC

1 61932C 24207W   26257.94215278  .00018338  00000+0  66427-3 0  2573
2 61932  43.0013 296.7204 0001350 266.9916  36.4376 15.27566708    19

Traccia STARLINK-32354 in tempo reale con AllMySat

Download on the App Store